Location: San Antonio
(29.4240°N, 98.4930°W)
Time: 14:40:23
(UTC-05:00)

BlueWalker 3 - Pass Details

Date: 21 June 2024
Orbit: 480 x 492 km, 53.2° (Epoch: 11 July)

Event Time Altitude Azimuth Distance (km) Brightness Sun altitude
Rises 04:48:26 0° 328° (NNW) 2,533 5.7 -19.8°
Reaches altitude 10° 04:50:44 10° 337° (NNW) 1,653 4.8 -19.4°
Maximum altitude 04:54:09 34° 44° (NE) 811 3.6 -18.8°
Drops below altitude 10° 04:57:34 10° 111° (ESE) 1,651 4.9 -18.3°
Sets 04:59:52 0° 120° (ESE) 2,530 5.7 -17.9°
